Regional Weather Roundup
Issued by NWS San Angelo, TX

Home | Current Version | Previous Version | Text Only | Print | Product List | Glossary On
Versions: 1 2 3 4 5 6 7 8 9 10 11 12 13 14 15 16 17 18 19 20 21 22 23 24 25 26 27 28 29 30 31 32 33 34 35 36 37 38 39 40 41 42 43 44 45 46 47 48 49 50
000
ASUS44 KSJT 231410
RWRSJT
WEST CENTRAL TEXAS REGIONAL WEATHER ROUNDUP
NATIONAL WEATHER SERVICE SAN ANGELO TX
900 AM CDT THU OCT 23 2014

NOTE: "FAIR" INDICATES FEW OR NO CLOUDS BELOW 12,000 FEET WITH NO
SIGNIFICANT WEATHER AND/OR OBSTRUCTIONS TO VISIBILITY.

TXZ049-054-064>066-071>073-076>078-098-099-113-114-127-128-139-140-
154-155-168>170-231500
...LOCATIONS ACROSS WEST CENTRAL TEXAS...

CITY           SKY/WX    TMP DP  RH WIND       PRES   REMARKS
SAN ANGELO     CLOUDY    57  55  93 S3        30.15R
ABILENE        SUNNY     62  56  80 SE6       30.14R
DYESS AFB      SUNNY     61  57  85 S5        30.13R
JUNCTION       MOSUNNY   59  56  89 CALM      30.15R FOG
SWEETWATER     SUNNY     62  57  83 S9        30.17R
BROWNWOOD      CLOUDY    64  59  82 CALM      30.15R
COLEMAN        SUNNY     61  60  97 CALM      30.15R
SONORA         CLOUDY    57  57 100 CALM      30.19R
OZONA          FAIR      54  52  94 CALM      30.18R FOG
BRADY          CLOUDY    63  55  77 CALM      30.14R
$$

TEXAS PANHANDLE/OKLAHOMA PANHANDLE

CITY           SKY/WX    TMP DP  RH WIND       PRES   REMARKS
AMARILLO       MOSUNNY   60  57  89 S7        30.12S
BORGER         SUNNY     60  57  89 S7        30.10  FOG
CANADIAN       SUNNY     59  58  97 SW3       30.09S FOG
DALHART        CLEAR     50  49  96 CALM      30.13R FOG
DUMAS          FOG       52  52  98 SW3       30.11S VSB 1
GUYMON         NOT AVBL
HEREFORD       MOSUNNY   61  58  90 S7        30.14R
PAMPA          SUNNY     57  56  96 S7        30.12R FOG
PERRYTON       SUNNY     58  57  96 SW10      30.09R
$$

SOUTHERN PANHANDLE/SOUTH PLAINS/ROLLING PLAINS

CITY           SKY/WX    TMP DP  RH WIND       PRES   REMARKS
LUBBOCK        FOG       52  51  97 SW7       30.15R VSB 1/8
SNYDER         CLOUDY    58  57  96 S7        30.16R FOG
CHILDRESS      SUNNY     58  57  97 S3        30.13R FOG
SEMINOLE       FOG       56  56  99 CALM      30.17R VSB<1/4
$$

PERMIAN BASIN

CITY           SKY/WX    TMP DP  RH WIND       PRES   REMARKS
MIDLAND        CLOUDY    59  58  96 S8        30.14R FOG
ODESSA         FOG       58  57  97 S7        30.15R VSB 1/4
WINK           CLOUDY    57  57 100 E3        30.13R
$$

FAR WEST/SOUTHWEST MOUNTAINS/TRANS PECOS

CITY           SKY/WX    TMP DP  RH WIND       PRES   REMARKS
ALPINE         SUNNY     59  56  92 SW6       30.27R
DRYDEN           N/A     63  60  90 SW6       30.13R
EL PASO        CLEAR     56  52  86 CALM      30.18R
FORT STOCKTON  SUNNY     61  58  90 SW12      30.14R
GUADALUPE PASS FOG       55  55 100 SW14      30.26R VSB<1/4
MARFA          CLOUDY    55  55 100 CALM      30.26R
PECOS          FOG       57  56  97 CALM      30.14R VSB<1/4
$$

DALLAS/FORT WORTH METROPLEX

CITY           SKY/WX    TMP DP  RH WIND       PRES   REMARKS
DFW AIRPORT    CLOUDY    64  56  75 SE5       30.15R
FTW MEACHAM    CLOUDY    67  54  63 SE9       30.14R
DAL-EXECUTIVE  CLOUDY    65  54  67 SE8       30.14S
GRAND PRAIRIE  NOT AVBL
ADDISON        CLOUDY    64  52  63 SE8       30.15
MESQUITE       CLOUDY    63  54  72 E3        30.16S
LANCASTER      CLOUDY    62  55  75 E3        30.16S
$$

NORTH CENTRAL TEXAS

CITY           SKY/WX    TMP DP  RH WIND       PRES   REMARKS
SHRMAN/DENISON LGT RAIN  61  57  89 SE6       30.17R
GAINESVILLE    CLOUDY    61  56  82 SE7       30.17R
BRIDGEPORT     CLOUDY    65  57  75 SE3       30.16R
DENTON         CLOUDY    64  56  75 SE8       30.15R
WAXAHACHIE     CLOUDY    62  57  84 E3        30.16S
GRANBURY       MOSUNNY   66  58  75 SE5       30.15R
$$

WESTERN NORTH TEXAS

CITY           SKY/WX    TMP DP  RH WIND       PRES   REMARKS
WICHITA FALLS  SUNNY     63  59  87 CALM      30.12R
VERNON         CLOUDY    61  57  88 CALM      30.12R VSB<1/4
BRECKENRIDGE   CLOUDY    67  58  73 S3        30.13R HAZE
COMANCHE       MOSUNNY   63  63 100 SE3       30.14S
$$

CENTRAL AND SOUTH CENTRAL TEXAS

CITY           SKY/WX    TMP DP  RH WIND       PRES   REMARKS
AUSTIN/BERGSTM PTSUNNY   66  63  90 E5        30.13R
WACO           MOSUNNY   64  59  83 E3        30.15R
HILLSBORO      CLOUDY    64  55  74 E5        30.15R
TEMPLE         MOSUNNY   66  55  68 E5        30.14R
KILLEEN-GRAY   PTSUNNY   66  61  82 SE5       30.14R
FORT HOOD      CLOUDY    66  60  81 SE5       30.14R
GEORGETOWN     PTSUNNY   66  61  82 CALM      30.14R
LAGO VISTA     PTSUNNY   68  61  79 CALM      30.15R
SAN MARCOS     SUNNY     66  61  82 MISG      30.14R FOG
NEW BRAUNFELS  PTSUNNY   68  67  96 CALM      30.12R FOG
RANDOLPH AFB   PTSUNNY   67  64  90 NE1       30.13R
SAN ANTONIO    PTSUNNY   70  66  87 N3        30.13R
STINSON        PTSUNNY   70  63  78 NE3       30.11R
PLEASANTON     NOT AVBL
LA GRANGE      PTSUNNY   65  63  91 CALM      30.12R
GIDDINGS       PTSUNNY   65  59  81 CALM      30.18R
$$

EAST TEXAS

CITY           SKY/WX    TMP DP  RH WIND       PRES   REMARKS
PARIS          PTSUNNY   57  48  72 E6        30.18R
CLARKSVILLE    NOT AVBL
TYLER          CLOUDY    60  52  74 E5        30.15R
LONGVIEW       CLOUDY    58  53  84 CALM      30.16R
PALESTINE      CLOUDY    61  51  69 CALM      30.16R
NACOGDOCHES    CLOUDY    57  50  77 CALM      30.15R
$$

TEXAS HILL COUNTRY AND EDWARDS PLATEAU

CITY           SKY/WX    TMP DP  RH WIND       PRES   REMARKS
LLANO          NOT AVBL
HORSESHOE BAY  PTSUNNY   66  61  84 S5        30.14R
KERRVILLE      MOSUNNY   62  61  94 CALM      30.16R FOG
FREDERICKSBRG  MOSUNNY   64  61  88 CALM      30.16R
ROCKSPRINGS    SUNNY     63  61  94 SE6       30.18R FOG
HONDO          PTSUNNY   64  64 100 E5        30.15R
UVALDE         MOSUNNY   68  67  96 E5        30.13S
DEL RIO        CLOUDY    65  63  93 E7        30.11R
$$

SOUTHEAST TEXAS

CITY           SKY/WX    TMP DP  RH WIND       PRES   REMARKS
COLLEGE STN    CLOUDY    65  54  67 E5        30.14R
CALDWELL       CLOUDY    63  59  88 CALM      30.18R
CROCKETT       CLOUDY    63  57  82 NE3       30.18R
BRENHAM        CLOUDY    65  57  75 NE3       30.15S
HUNTSVILLE     CLOUDY    61  55  81 CALM      30.14R
CONROE         CLOUDY    60  52  74 NW5       30.15R
HOUSTON BUSH   CLOUDY    61  54  77 E7        30.11R
HOUSTON HOBBY  CLOUDY    65  56  72 N6        30.11R
PERLAND        CLOUDY    65  58  78 N3        30.13R
WHARTON        CLOUDY    65  59  82 N3        30.13R
$$

THE UPPER TEXAS COAST

CITY           SKY/WX    TMP DP  RH WIND       PRES   REMARKS
ORANGE         MOSUNNY   60  55  82 NE6       30.13R
PORT ARTHUR    MOSUNNY   64  52  64 E10       30.10R
GALVESTON      MOSUNNY   71  65  81 NE8       30.10R
ANGLETON       PTSUNNY   63  60  90 NE6       30.11R
BAY CITY         N/A     64  62  92 N3        30.11R
$$

TEXAS COASTAL BEND, RIO GRANDE PLAINS DEEP SOUTH TEXAS

CITY           SKY/WX    TMP DP  RH WIND       PRES   REMARKS
VICTORIA       CLOUDY    66  61  84 NE6       30.11R
BEEVILLE       FAIR      70  62  77 NE5       30.10R
ROCKPORT       MOSUNNY   68  62  81 N12       30.10R
PORT ARANSAS   MOSUNNY   72  66  83 N13       30.08R
PORT LAVACA    PTSUNNY   65  61  88 NE7       30.11R
CORPUS CHRISTI PTSUNNY   68  64  87 N10       30.09R
KINGSVILLE NAS PTSUNNY   67  65  93 N7        30.09R
COTULLA        PTSUNNY   70  64  81 E8        30.11R
LAREDO         CLOUDY    71  65  81 NE7       30.12R
BROWNSVILLE    MOSUNNY   73  69  87 NW5       30.05R
PORT ISABEL    SUNNY     74  69  85 NW7       30.05R
HEBBRONVILLE   MOSUNNY   68  64  86 NE5       30.10R
MCALLEN        CLOUDY    72  66  81 N6        30.07R
WESLACO        PTSUNNY   71  65  83 CALM      30.06R
FALFURRIAS     PTSUNNY   66  64  91 N6        30.08R
EDINBURG       PTSUNNY   70  66  87 NW3       30.08R
$$



USA.gov is the U.S. government's official web portal to all federal, state and local government web resources and services.